[[{"header":{"parameterUnit":"m.s-1","parameterCategory":2,"la1":30.2991,"la2":30.254,"lo1":-89.0895,"lo2":-89.0444,"dy":0.0017,"dx":0.0017,"nx":28,"ny":28,"refTime":"2024-06-09T09:00:00:Z","depth":"0","parameterNumber":2,"parameterNumberName":"U-component_of_CURRENTS"},"data":[0,0,0,0,0,0,0,0,0,0,0,0,0,0,0,0,0,0,0,0,0,0,0,0,0,0,0,0,0,0,0,0,0,0,0,0,0,0,0,0,0,0,0,0,0,0,0,0,0,0,0,0,0,0,0,0,0,0,0.3389,0.339,0,0.3536,0.3538,0.3539,0.3566,0.3565,0.3564,0.3563,0.3729,0.3734,0.3739,0,0,0,0,0,0,0,0,0,0,0,0,0,0.3177,0.318,0.3388,0.339,0.3393,0.3536,0.3538,0.354,0.3566,0.3565,0.3564,0.3563,0.3727,0.3733,0.3739,0,0,0,0,0,0,0,0,0,0,0,0,0,0.3289,0.3182,0.3388,0.3425,0.343,0.3536,0.3538,0.354,0.3566,0.3565,0.3563,0.3562,0.3725,0.3732,0.374,0.382,0,0,0.3765,0.3768,0,0,0,0,0,0,0,0,0.3283,0.3296,0.3417,0.3422,0.3428,0.3533,0.3525,0.3636,0.3567,0.3512,0.3563,0.3561,0.3668,0.368,0.3708,0.3827,0.3835,0.3765,0.377,0.3774,0.3776,0,0,0,0,0,0,0,0.3275,0.329,0.3444,0.342,0.3426,0.3451,0.3464,0.3546,0.3595,0.3517,0.352,0.354,0.367,0.37,0.3712,0.3837,0.3765,0.3772,0.3777,0.378,0.4073,0.4076,0,0,0,0,0,0,0.3261,0.3283,0.344,0.3449,0.3353,0.3456,0.3471,0.3499,0.3594,0.3607,0.3542,0.3541,0.3687,0.3702,0.3718,0.3874,0.3774,0.3781,0.3786,0.407,0.4073,0.4077,0,0,0,0,0,0,0.3256,0.3274,0.3434,0.3371,0.3393,0.3461,0.3493,0.3503,0.3539,0.3613,0.3626,0.3567,0.3686,0.3707,0.3797,0.3878,0.3785,0.3792,0.4066,0.4071,0.4075,0.415,0,0,0,0,0,0,0.325,0.3272,0.3292,0.337,0.3396,0.3513,0.3495,0.3507,0.3555,0.3556,0.364,0.3653,0.3687,0.3785,0.3805,0.3887,0.3798,0.4063,0.4068,0.4074,0.4144,0.4157,0.4168,0,0,0,0,0,0.3242,0.3288,0.3293,0.3312,0.3421,0.3516,0.3532,0.3572,0.3557,0.3593,0.3636,0.365,0.3834,0.3793,0.3816,0.3903,0.406,0.4067,0.4073,0.4139,0.4154,0.4167,0,0,0,0,0,0,0.3221,0.3298,0.3304,0.3374,0.3441,0.3521,0.3565,0.3581,0.3644,0.3642,0.3687,0.3706,0.3824,0.3847,0.38,0.4002,0.3952,0.3964,0.3994,0.4009,0.4021,0.3979,0.3805,0,0,0,0,0,0.3222,0.327,0.3345,0.3404,0.3436,0.3496,0.3538,0.3567,0.3631,0.3656,0.3711,0.3779,0.3873,0.392,0.3999,0.4106,0.4125,0.4177,0.4189,0.4198,0.418,0.4259,0.4275,0.4099,0.4098,0.4098,0,0,0.323,0.328,0.3308,0.3401,0.3453,0.3528,0.3518,0.3594,0.3663,0.3668,0.3773,0.3828,0.391,0.4033,0.4088,0.406,0.4272,0.4207,0.4215,0.419,0.4268,0.4284,0.43,0.4103,0.4102,0.4101,0,0,0.3274,0.3315,0.3365,0.3429,0.3513,0.356,0.3581,0.3666,0.3709,0.3812,0.3842,0.3918,0.4059,0.4125,0.4179,0.43,0.4333,0.435,0.438,0.4459,0.4473,0.4486,0.458,0.46,0.4353,0.4353,0.4354,0,0.3285,0.3355,0.3398,0.3471,0.3531,0.3574,0.3649,0.3718,0.382,0.3874,0.3854,0.405,0.4102,0.4258,0.429,0.4329,0.438,0.4321,0.4472,0.4485,0.4496,0.4589,0.461,0.4358,0.4357,0.4357,0.4356,0,0.3363,0.3427,0.3471,0.3569,0.3638,0.3718,0.3807,0.388,0.3923,0.3987,0.4129,0.4186,0.4296,0.434,0.435,0.4485,0.4501,0.448,0.4428,0.4518,0.4612,0.4632,0.4364,0.4363,0.4361,0.436,0,0,0.3389,0.3499,0.3517,0.3572,0.3696,0.3765,0.3887,0.4016,0.4091,0.4185,0.4288,0.4419,0.4427,0.4483,0.4518,0.456,0.4691,0.4548,0.455,0.4627,0.4893,0.4842,0.486,0.4702,0.4705,0.4708,0.4942,0,0.3444,0.3567,0.361,0.3743,0.3826,0.3901,0.4007,0.4126,0.421,0.4321,0.4402,0.4508,0.4499,0.4537,0.4596,0.4667,0.4742,0.463,0.4804,0.4809,0.474,0.488,0.462,0.48,0.4962,0.4965,0.4968,0,0.3521,0.3594,0.3714,0.3836,0.3874,0.3947,0.4107,0.4203,0.4366,0.4428,0.4541,0.46,0.4726,0.4659,0.4851,0.4788,0.4846,0.4875,0.4886,0.4811,0.4795,0.4729,0.4831,0.4715,0.4999,0.4997,0.4994,0,0.3551,0.3674,0.3763,0.3816,0.3958,0.4017,0.4084,0.4238,0.4331,0.4481,0.456,0.4713,0.4802,0.4888,0.499,0.4932,0.5171,0.5108,0.5131,0.513,0.4924,0.4898,0.4906,0.5229,0.5228,0.5227,0.5227,0,0.3635,0.3716,0.3772,0.3843,0.3946,0.4021,0.4137,0.4235,0.4362,0.4489,0.4601,0.4733,0.4855,0.5017,0.5062,0.5196,0.5265,0.5162,0.519,0.4949,0.4924,0.482,0.4775,0.5236,0.5234,0.5232,0.5231,0,0.3712,0.3748,0.3856,0.395,0.3977,0.4054,0.4161,0.4242,0.4355,0.4519,0.4572,0.4802,0.5007,0.5142,0.531,0.5307,0.5258,0.5431,0.5151,0.5139,0.4972,0.4941,0.4812,0.4681,0.5472,0.5472,0.5472,0,0.3777,0.3836,0.3917,0.3962,0.4007,0.4094,0.4155,0.4248,0.4322,0.4573,0.4655,0.4908,0.5078,0.5339,0.5362,0.5471,0.5314,0.5283,0.5088,0.4952,0.4941,0.4744,0.4627,0.488,0.4875,0.4872,0.4868,0,0.3908,0.3912,0.3986,0.4035,0.4089,0.4152,0.4222,0.4271,0.4396,0.4513,0.4705,0.4849,0.5113,0.5118,0.5264,0.5279,0.4994,0.5206,0.5125,0.4531,0.4255,0.4144,0.4769,0.4834,0.4837,0.484,0.4842,0.4843,0.3986,0.4024,0.4058,0.4101,0.4149,0.4164,0.4153,0.4225,0.4301,0.4402,0.4642,0.474,0.4842,0.4994,0.4991,0.4802,0.4816,0.462,0.4623,0.4459,0.4209,0.4776,0.4825,0.4828,0.4831,0.4834,0.4836,0,0.4027,0.4045,0.411,0.4107,0.4094,0.4127,0.4152,0.4086,0.4082,0.4256,0.4364,0.4428,0.4419,0.4459,0.4381,0.4234,0.3993,0.4127,0.3765,0.3703,0.4266,0.4113,0.3932,0.3933,0.3933,0.3933,0.3933,0.3933,0.4052,0.4075,0.4063,0.4016,0.3999,0.389,0.3854,0.3799,0.3831,0.3819,0.3825,0.3945,0.4089,0.4096,0.3917,0.3813,0.354,0.3356,0.3431,0.381,0.3854,0.3895,0.3739,0.3483,0.3483,0.2629,0.2623,0.2618]},{"header":{"parameterUnit":"m.s-1","parameterCategory":2,"la1":30.2991,"la2":30.254,"lo1":-89.0895,"lo2":-89.0444,"dy":0.0017,"dx":0.0017,"nx":28,"ny":28,"refTime":"2024-06-09T09:00:00:Z","depth":"0","parameterNumber":3,"parameterNumberName":"V-component_of_CURRENTS"},"data":[0,0,0,0,0,0,0,0,0,0,0,0,0,0,0,0,0,0,0,0,0,0,0,0,0,0,0,0,0,0,0,0,0,0,0,0,0,0,0,0,0,0,0,0,0,0,0,0,0,0,0,0,0,0,0,0,0,0,0.02,0.02,0,0.0131,0.013,0.0129,0.0074,0.0074,0.0073,0.0073,-0.0066,-0.0069,-0.0073,0,0,0,0,0,0,0,0,0,0,0,0,0,0.0204,0.0204,0.02,0.02,0.0199,0.0131,0.013,0.0129,0.0074,0.0074,0.0073,0.0073,-0.0065,-0.0069,-0.0073,0,0,0,0,0,0,0,0,0,0,0,0,0,0.0173,0.0204,0.02,0.0165,0.0161,0.0131,0.013,0.0128,0.0074,0.0074,0.0073,0.0073,-0.0064,-0.0068,-0.0073,-0.0094,0,0,-0.0089,-0.0091,0,0,0,0,0,0,0,0,0.0175,0.0173,0.0171,0.0167,0.0163,0.0112,0.008,0.0051,0.0074,0.0105,0.0073,0.0072,-0.0011,-0.0021,-0.0034,-0.0101,-0.0107,-0.0089,-0.0092,-0.0095,-0.0096,0,0,0,0,0,0,0,0.0178,0.0175,0.0171,0.017,0.0166,0.0125,0.012,0.0074,0.0048,0.0102,0.0099,0.0094,-0.0014,-0.0029,-0.0038,-0.0109,-0.0089,-0.0094,-0.0097,-0.0099,-0.0208,-0.0208,0,0,0,0,0,0,0.0195,0.0178,0.0173,0.0169,0.017,0.0125,0.012,0.0128,0.005,0.0039,0.0095,0.0092,-0.002,-0.0032,-0.0043,-0.008,-0.0095,-0.0099,-0.0102,-0.0208,-0.0208,-0.0207,0,0,0,0,0,0,0.0196,0.0196,0.0176,0.0172,0.0167,0.0127,0.0135,0.0127,0.0113,0.0045,0.0032,0.009,-0.0021,-0.0036,-0.0084,-0.0086,-0.0102,-0.0106,-0.0208,-0.0208,-0.0208,-0.015,0,0,0,0,0,0,0.0196,0.0197,0.0206,0.0174,0.0168,0.0165,0.0135,0.0126,0.0112,0.0108,0.0037,0.0023,-0.0023,-0.0076,-0.0089,-0.0093,-0.011,-0.0208,-0.0208,-0.0208,-0.0152,-0.0148,-0.0144,0,0,0,0,0,0.0197,0.0218,0.0207,0.0206,0.0183,0.0166,0.0159,0.0125,0.0113,0.0111,0.006,0.0026,-0.0083,-0.008,-0.0095,-0.0101,-0.0208,-0.0208,-0.0208,-0.0154,-0.0149,-0.0144,0,0,0,0,0,0,0.0221,0.0214,0.0201,0.0218,0.0195,0.0157,0.0156,0.0133,0.0093,0.0087,0.0023,0.0006,-0.0038,-0.0073,-0.0068,-0.013,-0.015,-0.0152,-0.0104,-0.0099,-0.0096,-0.0039,-0.0114,0,0,0,0,0,0.0233,0.025,0.0224,0.0237,0.023,0.0194,0.0183,0.016,0.0123,0.0106,0.0055,0.0002,-0.0048,-0.0075,-0.0124,-0.0158,-0.0158,-0.017,-0.0166,-0.0162,-0.0126,-0.0134,-0.0126,-0.0206,-0.0206,-0.0206,0,0,0.0243,0.0244,0.025,0.0243,0.0224,0.0219,0.0186,0.0176,0.0164,0.0096,0.0063,0.0011,-0.0054,-0.0095,-0.0117,-0.0125,-0.0142,-0.0162,-0.0158,-0.0123,-0.0132,-0.0124,-0.0117,-0.0206,-0.0206,-0.0206,0,0,0.0277,0.0276,0.0299,0.0284,0.0267,0.0243,0.0245,0.0208,0.0185,0.0147,0.0095,0.0055,-0.0028,-0.0064,-0.0096,-0.0095,-0.0122,-0.0123,-0.0058,-0.0067,-0.006,-0.0053,-0.0046,-0.004,-0.0119,-0.0119,-0.0119,0,0.0286,0.0318,0.0299,0.031,0.031,0.026,0.0276,0.0239,0.0188,0.0187,0.0144,0.0062,-0.0007,-0.0031,-0.0041,-0.0085,-0.0086,-0.0074,-0.0059,-0.0053,-0.0047,-0.0042,-0.0035,-0.0116,-0.0116,-0.0117,-0.0117,0,0.033,0.0351,0.0363,0.0366,0.0359,0.0365,0.0321,0.0309,0.0273,0.0242,0.0211,0.0125,0.0096,0.0046,-0.0006,-0.0,-0.0013,-0.0055,-0.0065,-0.0035,-0.0032,-0.0026,-0.0112,-0.0113,-0.0114,-0.0115,0,0,0.0361,0.0392,0.0395,0.0429,0.0395,0.0411,0.0389,0.0382,0.0411,0.0325,0.0362,0.0242,0.0222,0.0187,0.0119,0.0094,0.0105,0.0043,0.0041,0.0063,0.0105,0.01,0.0106,0.0064,0.0065,0.0067,0.009,0,0.0401,0.047,0.0455,0.0509,0.0547,0.0505,0.051,0.0492,0.0461,0.0478,0.0391,0.0388,0.0265,0.0271,0.022,0.0145,0.0125,0.0104,0.0063,0.0063,0.0066,0.0114,0.0095,0.0116,0.0096,0.0097,0.0098,0,0.0448,0.0499,0.0576,0.064,0.0651,0.0668,0.0714,0.0709,0.0692,0.0675,0.0645,0.0586,0.0542,0.0438,0.0331,0.0326,0.0234,0.0159,0.0157,0.0148,0.0071,0.0082,0.0127,-0.0089,0.0107,0.0106,0.0105,0,0.0533,0.0585,0.0672,0.0684,0.0731,0.077,0.0789,0.0786,0.0824,0.0827,0.0877,0.0779,0.0792,0.064,0.0473,0.0412,0.0373,0.0266,0.0178,0.0176,0.0155,0.0149,0.0003,0.0214,0.0214,0.0213,0.0213,0,0.0605,0.0676,0.0732,0.0788,0.0896,0.0888,0.0995,0.0993,0.1034,0.1128,0.101,0.1087,0.0848,0.0783,0.0572,0.0423,0.0453,0.0226,0.0193,0.0172,0.0168,-0.0027,-0.0141,0.0214,0.0214,0.0214,0.0214,0,0.0702,0.0732,0.0844,0.0922,0.095,0.1037,0.113,0.1204,0.1235,0.1364,0.1388,0.135,0.127,0.1027,0.0825,0.0604,0.0308,0.0362,0.0365,0.0331,0.0002,-0.0107,-0.0235,-0.0322,0.0254,0.0254,0.0255,0,0.0771,0.0839,0.0951,0.1017,0.1061,0.1174,0.1249,0.1298,0.1392,0.1543,0.1632,0.1618,0.1636,0.1339,0.0947,0.0614,0.0375,0.0369,0.0229,0.0019,-0.0128,-0.0222,-0.0293,0.0216,0.0216,0.0216,0.0215,0,0.0901,0.0933,0.1018,0.1135,0.1234,0.1358,0.1483,0.1595,0.1695,0.1842,0.2033,0.2078,0.1815,0.1482,0.1021,0.0759,0.021,0.0355,0.0131,-0.0154,-0.0256,-0.0366,0.0171,0.0214,0.0214,0.0214,0.0215,0.0215,0.0989,0.1054,0.1138,0.1251,0.1368,0.153,0.1654,0.1815,0.2026,0.2271,0.2314,0.2419,0.1924,0.1297,0.0933,0.0225,0.0221,-0.0038,-0.0144,-0.0212,-0.0324,0.023,0.0233,0.0233,0.0233,0.0233,0.0233,0,0.1068,0.1126,0.1238,0.138,0.1518,0.1566,0.1793,0.194,0.2216,0.2455,0.2635,0.2441,0.1838,0.1191,0.0254,-0.0216,-0.0397,-0.0471,-0.0639,-0.0684,-0.0198,-0.0232,-0.032,-0.032,-0.032,-0.032,-0.0319,-0.0319,0.1111,0.1209,0.1251,0.1474,0.1586,0.1786,0.1928,0.2168,0.237,0.2651,0.272,0.2737,0.2219,0.062,-0.0479,-0.0722,-0.1027,-0.1091,-0.1225,-0.095,-0.0919,-0.089,-0.0951,-0.1189,-0.119,-0.1686,-0.1691,-0.1695]}],[{"header":{"parameterUnit":"m.s-1","parameterCategory":2,"la1":30.2991,"la2":30.254,"lo1":-89.0895,"lo2":-89.0444,"dy":0.0017,"dx":0.0017,"nx":28,"ny":28,"refTime":"2024-06-09T09:00:00:Z","depth":"2","parameterNumber":2,"parameterNumberName":"U-component_of_CURRENTS"},"data":[0,0,0,0,0,0,0,0,0,0,0,0,0,0,0,0,0,0,0,0,0,0,0,0,0,0,0,0,0,0,0,0,0,0,0,0,0,0,0,0,0,0,0,0,0,0,0,0,0,0,0,0,0,0,0,0,0,0,0.2876,0.2877,0,0.2976,0.2976,0.2977,0.3021,0.3021,0.3022,0.3022,0.3094,0.3096,0.3098,0,0,0,0,0,0,0,0,0,0,0,0,0,0.2735,0.2737,0.2876,0.2878,0.2879,0.2975,0.2976,0.2977,0.3021,0.3021,0.3022,0.3022,0.3094,0.3096,0.3098,0,0,0,0,0,0,0,0,0,0,0,0,0,0.2808,0.2738,0.2876,0.2915,0.292,0.2975,0.2976,0.2978,0.3021,0.3021,0.3022,0.3022,0.3093,0.3096,0.3098,0.3109,0,0,0.3106,0.3107,0,0,0,0,0,0,0,0,0.2804,0.2813,0.2908,0.2913,0.2918,0.2989,0.2954,0.3022,0.3021,0.2979,0.3022,0.3022,0.3059,0.3064,0.3078,0.3113,0.3116,0.3107,0.3108,0.3109,0.311,0,0,0,0,0,0,0,0.2799,0.2809,0.2912,0.2909,0.2916,0.2932,0.2942,0.2967,0.3013,0.2983,0.2987,0.3003,0.3061,0.3075,0.308,0.3117,0.3106,0.3109,0.311,0.3111,0.3277,0.328,0,0,0,0,0,0,0.2793,0.2804,0.2909,0.2915,0.2864,0.2934,0.2946,0.2963,0.3013,0.3023,0.3003,0.3005,0.307,0.3077,0.3083,0.325,0.3109,0.3112,0.3113,0.3275,0.3278,0.3281,0,0,0,0,0,0,0.279,0.2801,0.2905,0.2864,0.2879,0.2937,0.2956,0.2965,0.3,0.303,0.3038,0.3032,0.3071,0.3079,0.3098,0.3247,0.3113,0.3115,0.3271,0.3276,0.328,0.3487,0,0,0,0,0,0,0.2785,0.2799,0.2811,0.2864,0.2882,0.2949,0.2957,0.2967,0.3011,0.3015,0.3057,0.3063,0.3072,0.3094,0.3101,0.3248,0.3117,0.3268,0.3273,0.3278,0.3477,0.3498,0.3516,0,0,0,0,0,0.278,0.2807,0.2811,0.2824,0.2895,0.295,0.2961,0.2999,0.3012,0.3031,0.3041,0.3062,0.3135,0.3096,0.3104,0.3257,0.3265,0.3272,0.3278,0.3468,0.3494,0.3516,0,0,0,0,0,0,0.2759,0.2816,0.2821,0.2865,0.2904,0.2959,0.2992,0.3011,0.3037,0.3041,0.306,0.3067,0.3136,0.3144,0.31,0.3314,0.3221,0.3229,0.3363,0.3387,0.3407,0.343,0.312,0,0,0,0,0,0.2756,0.2782,0.2838,0.2867,0.2898,0.2944,0.2973,0.2995,0.3027,0.3041,0.3076,0.3118,0.3168,0.3228,0.3233,0.3349,0.3324,0.3459,0.3479,0.3496,0.3517,0.356,0.3587,0.3302,0.3302,0.3302,0,0,0.2758,0.2787,0.2805,0.2862,0.2903,0.2961,0.2963,0.3014,0.3078,0.3043,0.3136,0.3148,0.3189,0.3303,0.3349,0.3345,0.3565,0.3504,0.352,0.3531,0.357,0.3598,0.3623,0.3306,0.3305,0.3305,0,0,0.278,0.2804,0.2843,0.29,0.296,0.2974,0.2994,0.3062,0.3115,0.3184,0.3188,0.326,0.3354,0.3427,0.3477,0.3602,0.3617,0.3658,0.3852,0.3895,0.3919,0.394,0.3952,0.3972,0.3733,0.3733,0.3734,0,0.2779,0.2841,0.2862,0.2937,0.2996,0.2988,0.3064,0.3114,0.3176,0.3266,0.3232,0.3401,0.3418,0.3605,0.3681,0.3656,0.3677,0.3769,0.3924,0.3944,0.3962,0.3968,0.3988,0.3744,0.3743,0.3742,0.3741,0,0.2854,0.2916,0.2956,0.3033,0.3084,0.3147,0.3218,0.3272,0.3321,0.3415,0.3575,0.3584,0.3707,0.3767,0.3785,0.3984,0.3953,0.3894,0.387,0.4004,0.4001,0.4018,0.376,0.3756,0.3753,0.375,0,0,0.2839,0.2976,0.2995,0.3057,0.3153,0.3195,0.3309,0.3443,0.3534,0.3651,0.3812,0.3958,0.3999,0.405,0.4085,0.4187,0.4335,0.4162,0.4159,0.4185,0.4449,0.4305,0.4307,0.434,0.4344,0.4347,0.4398,0,0.2895,0.303,0.3088,0.3207,0.3292,0.3354,0.3448,0.3576,0.3672,0.3809,0.3953,0.4071,0.4104,0.4163,0.4285,0.428,0.4391,0.4326,0.4304,0.4302,0.4169,0.4326,0.4012,0.4022,0.4414,0.4416,0.4418,0,0.2978,0.3048,0.3186,0.3314,0.3357,0.3411,0.3555,0.3647,0.3859,0.3952,0.4148,0.4224,0.4425,0.4363,0.4528,0.4505,0.4523,0.4521,0.4521,0.4326,0.4191,0.3949,0.4037,0.4445,0.4443,0.4441,0.4439,0,0.2976,0.3128,0.3221,0.3286,0.3417,0.349,0.3543,0.3724,0.3827,0.4043,0.4135,0.436,0.4439,0.4529,0.4599,0.4583,0.4718,0.4645,0.4536,0.4523,0.4214,0.4167,0.4757,0.4756,0.4756,0.4756,0.4756,0,0.3052,0.3133,0.3223,0.3291,0.3385,0.3491,0.3609,0.3702,0.3861,0.4012,0.4203,0.4327,0.4497,0.4617,0.4647,0.4659,0.4753,0.4599,0.4549,0.4275,0.4235,0.4552,0.4528,0.4758,0.4758,0.4757,0.4757,0,0.3091,0.3154,0.3252,0.3362,0.3398,0.3471,0.3607,0.3699,0.3833,0.4005,0.4086,0.4344,0.4492,0.4613,0.4725,0.468,0.4694,0.4672,0.4335,0.4246,0.4456,0.4442,0.4539,0.4534,0.4531,0.4528,0.4526,0,0.3136,0.3198,0.3275,0.3331,0.3389,0.3496,0.357,0.3682,0.3767,0.4016,0.409,0.4321,0.4464,0.4566,0.4539,0.4534,0.4652,0.4211,0.4103,0.4504,0.4445,0.4436,0.4427,0.3776,0.3768,0.3761,0.3755,0,0.3243,0.325,0.332,0.3396,0.3466,0.3514,0.361,0.3623,0.3772,0.3882,0.4036,0.4167,0.4318,0.4201,0.421,0.4164,0.4178,0.4066,0.4597,0.3874,0.3787,0.3728,0.3744,0.3694,0.37,0.3704,0.3708,0.371,0.3307,0.3334,0.3413,0.3451,0.3532,0.3503,0.3475,0.3545,0.3586,0.3617,0.3825,0.3849,0.3914,0.3757,0.3657,0.3582,0.3852,0.3672,0.3692,0.3721,0.3618,0.3529,0.3367,0.3371,0.3375,0.3378,0.3381,0,0.3349,0.3376,0.3472,0.3476,0.3491,0.3555,0.3492,0.3385,0.3323,0.3375,0.3409,0.3133,0.3086,0.317,0.2968,0.2944,0.2913,0.2825,0.277,0.2835,0.2892,0.2745,0.2264,0.226,0.2256,0.2253,0,0,0.3406,0.3412,0.339,0.3388,0.3433,0.3373,0.3266,0.3054,0.2973,0.2794,0.273,0.2883,0.3064,0.2591,0.2547,0.2385,0.2582,0.2291,0.3199,0.3201,0.3252,0.3405,0.3256,0,0,0,0,0]},{"header":{"parameterUnit":"m.s-1","parameterCategory":2,"la1":30.2991,"la2":30.254,"lo1":-89.0895,"lo2":-89.0444,"dy":0.0017,"dx":0.0017,"nx":28,"ny":28,"refTime":"2024-06-09T09:00:00:Z","depth":"2","parameterNumber":3,"parameterNumberName":"V-component_of_CURRENTS"},"data":[0,0,0,0,0,0,0,0,0,0,0,0,0,0,0,0,0,0,0,0,0,0,0,0,0,0,0,0,0,0,0,0,0,0,0,0,0,0,0,0,0,0,0,0,0,0,0,0,0,0,0,0,0,0,0,0,0,0,0.0075,0.0075,0,0.0011,0.001,0.0009,-0.0043,-0.0043,-0.0044,-0.0044,-0.0168,-0.0171,-0.0173,0,0,0,0,0,0,0,0,0,0,0,0,0,0.0083,0.0083,0.0076,0.0075,0.0074,0.0011,0.001,0.0009,-0.0043,-0.0043,-0.0044,-0.0044,-0.0167,-0.017,-0.0174,0,0,0,0,0,0,0,0,0,0,0,0,0,0.0054,0.0083,0.0076,0.0042,0.0038,0.0011,0.001,0.0009,-0.0043,-0.0043,-0.0044,-0.0044,-0.0166,-0.017,-0.0174,-0.019,0,0,-0.0188,-0.019,0,0,0,0,0,0,0,0,0.0055,0.0053,0.0048,0.0044,0.004,-0.0007,-0.0033,-0.006,-0.0043,-0.0014,-0.0044,-0.0045,-0.0118,-0.0126,-0.0139,-0.0196,-0.0201,-0.0188,-0.0191,-0.0193,-0.0194,0,0,0,0,0,0,0,0.0058,0.0055,0.0048,0.0047,0.0043,0.0006,0.0001,-0.0039,-0.0064,-0.0016,-0.002,-0.0024,-0.0121,-0.0134,-0.0142,-0.0203,-0.0188,-0.0192,-0.0195,-0.0196,-0.0276,-0.0275,0,0,0,0,0,0,0.0073,0.0058,0.005,0.0046,0.0048,0.0006,0.0001,0.0007,-0.0063,-0.0073,-0.0024,-0.0026,-0.0126,-0.0137,-0.0147,-0.0186,-0.0193,-0.0197,-0.0199,-0.0276,-0.0276,-0.0275,0,0,0,0,0,0,0.0074,0.0074,0.0053,0.0051,0.0046,0.0008,0.0014,0.0006,-0.0007,-0.0067,-0.0079,-0.0029,-0.0127,-0.0141,-0.0173,-0.0191,-0.0199,-0.0203,-0.0277,-0.0276,-0.0275,-0.0254,0,0,0,0,0,0,0.0075,0.0075,0.0083,0.0053,0.0047,0.0045,0.0014,0.0006,-0.0008,-0.0012,-0.0076,-0.0088,-0.0129,-0.0166,-0.0178,-0.0197,-0.0206,-0.0278,-0.0276,-0.0276,-0.0256,-0.0253,-0.025,0,0,0,0,0,0.0075,0.0095,0.0084,0.0082,0.006,0.0045,0.0039,0.0008,-0.0008,-0.0008,-0.0048,-0.0086,-0.0168,-0.0169,-0.0183,-0.0204,-0.0278,-0.0277,-0.0276,-0.0257,-0.0253,-0.025,0,0,0,0,0,0,0.0098,0.0091,0.0078,0.0093,0.0073,0.0037,0.0038,0.0014,-0.0017,-0.0022,-0.0081,-0.0095,-0.0126,-0.0159,-0.0159,-0.0219,-0.0229,-0.023,-0.021,-0.0207,-0.0205,-0.0139,-0.021,0,0,0,0,0,0.0109,0.0125,0.0101,0.0112,0.0109,0.0073,0.0063,0.0042,0.0011,-0.0003,-0.0048,-0.0092,-0.0131,-0.0163,-0.0193,-0.0233,-0.0234,-0.0252,-0.025,-0.0247,-0.0201,-0.0213,-0.0208,-0.0271,-0.0271,-0.0271,0,0,0.0118,0.0118,0.0124,0.0118,0.0103,0.0106,0.0066,0.0059,0.005,-0.0012,-0.0035,-0.0078,-0.0133,-0.0172,-0.0191,-0.0207,-0.0237,-0.0246,-0.0244,-0.0197,-0.0211,-0.0205,-0.02,-0.027,-0.027,-0.027,0,0,0.0151,0.0149,0.0172,0.0162,0.0149,0.0132,0.0134,0.0101,0.0076,0.0046,0.0003,-0.003,-0.0108,-0.0139,-0.017,-0.0165,-0.021,-0.02,-0.0155,-0.017,-0.0164,-0.0159,-0.0181,-0.0178,-0.0215,-0.0214,-0.0214,0,0.0157,0.0192,0.0173,0.019,0.0195,0.015,0.0173,0.0138,0.0094,0.0088,0.0046,-0.0021,-0.0082,-0.0108,-0.012,-0.0159,-0.0178,-0.0172,-0.0166,-0.0161,-0.0156,-0.018,-0.0176,-0.0213,-0.0213,-0.0214,-0.0214,0,0.0203,0.0229,0.0244,0.0257,0.0256,0.027,0.0231,0.0223,0.0185,0.0147,0.0118,0.0043,0.0017,-0.0039,-0.009,-0.0094,-0.0123,-0.0153,-0.0173,-0.0148,-0.0175,-0.0173,-0.0212,-0.0212,-0.0212,-0.0213,0,0,0.0224,0.027,0.0275,0.0311,0.03,0.0314,0.0308,0.0303,0.0322,0.024,0.0263,0.0156,0.0128,0.0098,0.0025,-0.0015,-0.0035,-0.0076,-0.0077,-0.0095,-0.0078,-0.0136,-0.014,-0.008,-0.0079,-0.0077,-0.0121,0,0.0268,0.0341,0.0341,0.0405,0.0446,0.0421,0.0433,0.0414,0.0378,0.0382,0.0293,0.0284,0.017,0.0165,0.0105,0.002,-0.0021,-0.002,-0.0098,-0.0099,-0.0153,-0.0135,-0.0097,-0.0135,-0.0118,-0.0118,-0.0118,0,0.0312,0.0366,0.0448,0.0523,0.0539,0.0564,0.0614,0.0614,0.0589,0.0562,0.0526,0.0464,0.0409,0.0315,0.0183,0.0182,0.0073,-0.0013,-0.0018,-0.0062,-0.0151,-0.0151,-0.013,-0.0113,-0.0113,-0.0114,-0.0114,0,0.037,0.0442,0.0528,0.0545,0.0609,0.065,0.068,0.0676,0.0702,0.0698,0.0727,0.0631,0.0622,0.0472,0.0272,0.0234,0.0127,0.0056,-0.0097,-0.0103,-0.0072,-0.0078,-0.0009,-0.0009,-0.0009,-0.0009,-0.0009,0,0.0431,0.0499,0.057,0.062,0.0721,0.0737,0.0833,0.0839,0.0877,0.0942,0.084,0.0882,0.0662,0.0557,0.035,0.014,0.0189,-0.0058,-0.0107,-0.0069,-0.0074,-0.0048,-0.0052,-0.001,-0.001,-0.001,-0.0009,0,0.0486,0.0531,0.0633,0.0725,0.0755,0.083,0.0932,0.1,0.1029,0.1123,0.1141,0.1081,0.0954,0.0707,0.0482,0.0266,0.0058,-0.0028,0.0023,-0.002,-0.0185,-0.0187,-0.0191,-0.0193,-0.0195,-0.0197,-0.0198,0,0.0526,0.0585,0.0702,0.0751,0.0798,0.0907,0.0985,0.106,0.1142,0.1249,0.1311,0.1243,0.1198,0.0833,0.0467,0.0117,0.0064,-0.009,-0.0156,-0.015,-0.0198,-0.0197,-0.0197,-0.0118,-0.0119,-0.0119,-0.0119,0,0.0588,0.0625,0.07,0.0805,0.09,0.1013,0.1138,0.1249,0.1367,0.1479,0.1598,0.1585,0.1259,0.0924,0.0438,0.0194,-0.004,-0.0113,-0.0084,-0.0089,-0.0088,-0.0133,-0.0134,-0.0123,-0.0123,-0.0123,-0.0122,-0.0122,0.0603,0.0645,0.0728,0.0816,0.0944,0.1094,0.1234,0.1402,0.1595,0.1772,0.176,0.1742,0.1368,0.074,0.0349,-0.0067,-0.0062,-0.0227,-0.0222,-0.0217,-0.0212,-0.0216,-0.0274,-0.0274,-0.0275,-0.0275,-0.0275,0,0.0578,0.0615,0.0714,0.0832,0.0975,0.108,0.1308,0.1481,0.1755,0.1866,0.195,0.1584,0.1219,0.0795,0.0185,-0.0193,-0.0209,-0.0314,-0.0241,-0.0235,-0.023,-0.0223,-0.0289,-0.029,-0.0291,-0.0292,0,0,0.0555,0.0588,0.0625,0.0796,0.095,0.1199,0.1374,0.1651,0.1794,0.1939,0.1917,0.1802,0.1322,0.0864,0.0383,0.0057,-0.001,-0.0018,0.0032,0.0182,0.0191,-0.0141,-0.012,0,0,0,0,0]}],[{"header":{"parameterUnit":"m.s-1","parameterCategory":2,"la1":30.2991,"la2":30.254,"lo1":-89.0895,"lo2":-89.0444,"dy":0.0017,"dx":0.0017,"nx":28,"ny":28,"refTime":"2024-06-09T09:00:00:Z","depth":"4","parameterNumber":2,"parameterNumberName":"U-component_of_CURRENTS"},"data":[0,0,0,0,0,0,0,0,0,0,0,0,0,0,0,0,0,0,0,0,0,0,0,0,0,0,0,0,0,0,0,0,0,0,0,0,0,0,0,0,0,0,0,0,0,0,0,0,0,0,0,0,0,0,0,0,0,0,0.1606,0.1606,0,0.162,0.1621,0.1621,0.1634,0.1634,0.1634,0.1634,0.1671,0.1672,0.1673,0,0,0,0,0,0,0,0,0,0,0,0,0,0.1614,0.1613,0.1606,0.1606,0.1606,0.162,0.1621,0.1621,0.1634,0.1634,0.1634,0.1634,0.167,0.1672,0.1673,0,0,0,0,0,0,0,0,0,0,0,0,0,0.1618,0.1613,0.1606,0.1614,0.1615,0.162,0.1621,0.1621,0.1634,0.1634,0.1634,0.1634,0.167,0.1671,0.1673,0.1678,0,0,0.1677,0.1677,0,0,0,0,0,0,0,0,0.1618,0.1618,0.1613,0.1613,0.1614,0.1625,0.1637,0.1641,0.1634,0.1627,0.1634,0.1634,0.1657,0.1659,0.1662,0.168,0.1681,0.1677,0.1678,0.1678,0.1679,0,0,0,0,0,0,0,0.1617,0.1617,0.1612,0.1613,0.1614,0.1625,0.1626,0.1638,0.1642,0.1628,0.1629,0.1629,0.1658,0.1661,0.1663,0.1682,0.1677,0.1678,0.1679,0.1679,0.1727,0.1727,0,0,0,0,0,0,0.1613,0.1617,0.1612,0.1613,0.1616,0.1625,0.1625,0.1622,0.1641,0.1644,0.1629,0.163,0.1659,0.1662,0.1665,0.1684,0.1678,0.168,0.168,0.1726,0.1727,0.1727,0,0,0,0,0,0,0.1613,0.1612,0.1611,0.1615,0.1616,0.1624,0.162,0.1622,0.1658,0.1642,0.1645,0.1666,0.1659,0.1663,0.1687,0.1685,0.168,0.1681,0.1726,0.1726,0.1727,0.1715,0,0,0,0,0,0,0.1613,0.1612,0.1625,0.1614,0.1615,0.161,0.162,0.1622,0.1655,0.1657,0.1674,0.1676,0.1659,0.1685,0.1689,0.1687,0.1682,0.1725,0.1726,0.1727,0.1715,0.1715,0.1716,0,0,0,0,0,0.1613,0.1612,0.1625,0.1626,0.1627,0.161,0.1611,0.1619,0.1657,0.1657,0.168,0.1677,0.1693,0.1687,0.1691,0.1689,0.1725,0.1726,0.1727,0.1715,0.1715,0.1716,0,0,0,0,0,0,0.1616,0.1613,0.1627,0.1626,0.1622,0.1612,0.1622,0.1644,0.1666,0.1678,0.1688,0.169,0.1711,0.1709,0.1704,0.1707,0.1707,0.1709,0.1697,0.1697,0.1698,0.1745,0.1684,0,0,0,0,0,0.1626,0.1628,0.1622,0.1623,0.1628,0.1642,0.165,0.1649,0.1659,0.1671,0.1704,0.1719,0.1713,0.1715,0.172,0.1727,0.1799,0.1728,0.1729,0.1729,0.1771,0.1905,0.1923,0.1731,0.173,0.173,0,0,0.1623,0.1627,0.1626,0.1626,0.1634,0.1634,0.1647,0.1649,0.1641,0.1671,0.1711,0.1735,0.1721,0.1718,0.1727,0.1718,0.1811,0.173,0.173,0.1774,0.1908,0.1928,0.1945,0.1731,0.1731,0.1731,0,0,0.1605,0.163,0.1623,0.1615,0.1621,0.1641,0.1654,0.1674,0.1672,0.1689,0.1714,0.1766,0.1755,0.1764,0.1753,0.1772,0.1819,0.175,0.1779,0.1906,0.1924,0.1941,0.2016,0.204,0.1737,0.1737,0.1737,0,0.1608,0.1606,0.1617,0.16,0.1609,0.1655,0.1651,0.1643,0.1673,0.1705,0.1693,0.179,0.1779,0.1806,0.1788,0.1777,0.1842,0.1769,0.1911,0.1929,0.1947,0.202,0.2047,0.1737,0.1737,0.1737,0.1737,0,0.157,0.1579,0.1575,0.159,0.1595,0.16,0.1595,0.1646,0.1689,0.1703,0.1768,0.1781,0.1839,0.183,0.1796,0.1902,0.1903,0.1906,0.1915,0.1967,0.2038,0.2067,0.1736,0.1736,0.1736,0.1737,0,0,0.1552,0.1556,0.1558,0.1584,0.1595,0.1611,0.162,0.1669,0.1749,0.1755,0.1845,0.1831,0.1888,0.1885,0.1884,0.1989,0.2129,0.1989,0.1996,0.2072,0.2388,0.2164,0.2173,0.2161,0.2167,0.2171,0.2373,0,0.1538,0.1538,0.1534,0.1568,0.1584,0.1629,0.1658,0.1698,0.1755,0.1857,0.1866,0.1953,0.1873,0.1942,0.2004,0.2142,0.221,0.2073,0.2322,0.2329,0.2132,0.2201,0.219,0.2395,0.2401,0.2406,0.2409,0,0.1497,0.1522,0.1545,0.1615,0.1632,0.1685,0.1834,0.1838,0.1939,0.1986,0.2055,0.2073,0.2181,0.2127,0.2337,0.2254,0.2303,0.2397,0.2407,0.2236,0.2158,0.2343,0.2461,0.2457,0.2453,0.245,0.2447,0,0.1503,0.1533,0.1588,0.1592,0.1672,0.1748,0.1825,0.1928,0.1965,0.2116,0.2207,0.2288,0.2373,0.2479,0.2522,0.248,0.2773,0.2739,0.2577,0.2561,0.271,0.269,0.2897,0.2896,0.2896,0.2895,0.2895,0,0.1476,0.1517,0.1633,0.1654,0.1765,0.1809,0.1945,0.2034,0.2166,0.2228,0.2281,0.2346,0.248,0.2576,0.2616,0.2654,0.2824,0.2616,0.2616,0.2689,0.2665,0.2728,0.2705,0.2903,0.2901,0.29,0.2898,0,0.1418,0.1495,0.1559,0.1699,0.1757,0.1836,0.1984,0.2057,0.2236,0.2332,0.2384,0.2474,0.2609,0.2686,0.2895,0.277,0.2869,0.2822,0.2882,0.2877,0.2553,0.2528,0.272,0.2714,0.2709,0.2705,0.2702,0,0.1371,0.1391,0.1562,0.1594,0.1668,0.1802,0.1859,0.2061,0.2115,0.2357,0.2363,0.2551,0.2572,0.2678,0.2776,0.2865,0.2801,0.2813,0.2683,0.2563,0.2546,0.2528,0.251,0.2694,0.2692,0.2691,0.269,0,0.1199,0.129,0.1336,0.1435,0.1533,0.1627,0.175,0.1826,0.2029,0.223,0.2311,0.2373,0.2488,0.2561,0.2627,0.2668,0.2809,0.276,0.277,0.2649,0.2534,0.2517,0.2505,0.2673,0.2675,0.2677,0.2678,0,0.103,0.1042,0.11,0.1206,0.1297,0.1386,0.1526,0.1621,0.1748,0.2061,0.2077,0.2277,0.245,0.2457,0.2522,0.2548,0.2514,0.2419,0.2446,0.2467,0.228,0.209,0.2125,0,0,0,0,0,0.0798,0.0795,0.0832,0.0937,0.104,0.1135,0.136,0.1514,0.1797,0.18,0.1955,0.2048,0.2158,0.2238,0.2219,0.2396,0.2505,0.2358,0.2404,0.2578,0.2597,0.2394,0,0,0,0,0,0,0.0618,0.0622,0.0725,0.0675,0.0726,0.0833,0.1012,0.1241,0.1275,0.1575,0.1643,0.1864,0.1991,0.2123,0.2144,0.218,0.2158,0.2502,0.2496,0.2566,0.2584,0.26,0.2398,0,0,0,0,0]},{"header":{"parameterUnit":"m.s-1","parameterCategory":2,"la1":30.2991,"la2":30.254,"lo1":-89.0895,"lo2":-89.0444,"dy":0.0017,"dx":0.0017,"nx":28,"ny":28,"refTime":"2024-06-09T09:00:00:Z","depth":"4","parameterNumber":3,"parameterNumberName":"V-component_of_CURRENTS"},"data":[0,0,0,0,0,0,0,0,0,0,0,0,0,0,0,0,0,0,0,0,0,0,0,0,0,0,0,0,0,0,0,0,0,0,0,0,0,0,0,0,0,0,0,0,0,0,0,0,0,0,0,0,0,0,0,0,0,0,0.0083,0.0083,0,0.0062,0.0062,0.0062,0.0033,0.0033,0.0032,0.0032,-0.0003,-0.0004,-0.0004,0,0,0,0,0,0,0,0,0,0,0,0,0,0.0069,0.0069,0.0083,0.0083,0.0083,0.0062,0.0062,0.0061,0.0033,0.0033,0.0032,0.0031,-0.0003,-0.0004,-0.0004,0,0,0,0,0,0,0,0,0,0,0,0,0,0.0064,0.0069,0.0083,0.0066,0.0064,0.0062,0.0062,0.0061,0.0033,0.0033,0.0032,0.0031,-0.0003,-0.0004,-0.0004,0.0005,0,0,-0.0007,-0.0007,0,0,0,0,0,0,0,0,0.0064,0.0064,0.0069,0.0067,0.0065,0.005,0.0044,0.0042,0.0033,0.0045,0.0032,0.0031,0.0014,0.0012,0.0009,0.0003,0.0002,-0.0007,-0.0007,-0.0008,-0.0008,0,0,0,0,0,0,0,0.0065,0.0065,0.0075,0.0069,0.0067,0.0049,0.0048,0.0043,0.0033,0.0044,0.0042,0.004,0.0013,0.001,0.0008,0.0001,-0.0007,-0.0007,-0.0008,-0.0008,0.0038,0.0039,0,0,0,0,0,0,0.007,0.0066,0.0075,0.0074,0.0063,0.005,0.0049,0.0055,0.0033,0.0029,0.0041,0.0039,0.0011,0.0009,0.0007,0.0049,-0.0008,-0.0008,-0.0009,0.0036,0.0038,0.004,0,0,0,0,0,0,0.007,0.0072,0.0076,0.0069,0.0068,0.0051,0.0059,0.0055,0.0052,0.0031,0.0027,0.0041,0.0011,0.0008,0.001,0.0046,-0.0009,-0.0009,0.0034,0.0036,0.0039,0.0113,0,0,0,0,0,0,0.007,0.0072,0.008,0.007,0.0069,0.0088,0.0059,0.0055,0.0052,0.0049,0.003,0.0026,0.001,0.0011,0.0009,0.0044,-0.001,0.0032,0.0035,0.0038,0.0109,0.0118,0.0126,0,0,0,0,0,0.007,0.009,0.008,0.0081,0.008,0.009,0.0088,0.0073,0.0053,0.0064,0.0046,0.0026,0.003,0.0012,0.0009,0.0045,0.003,0.0034,0.0038,0.0105,0.0116,0.0126,0,0,0,0,0,0,0.0085,0.0088,0.0078,0.0097,0.0097,0.0085,0.0095,0.0077,0.0071,0.0067,0.0039,0.0035,0.0053,0.0039,0.0019,0.0069,0.0031,0.0034,0.0083,0.0094,0.0102,0.0107,-0.0011,0,0,0,0,0,0.0093,0.0111,0.0105,0.0121,0.0124,0.0108,0.0108,0.0098,0.009,0.0086,0.0074,0.0066,0.0068,0.007,0.0069,0.0091,0.0032,0.0116,0.0124,0.0132,0.0135,0.0048,0.0048,0.0052,0.0052,0.0052,0,0,0.0101,0.0107,0.0114,0.0125,0.0124,0.0146,0.0107,0.0117,0.0139,0.0084,0.0112,0.0092,0.0079,0.0107,0.0115,0.0098,0.0106,0.0136,0.0143,0.0142,0.0052,0.0051,0.005,0.0055,0.0054,0.0054,0,0,0.0135,0.0136,0.0162,0.0175,0.0182,0.0175,0.018,0.0176,0.0179,0.0199,0.0167,0.0158,0.0175,0.0163,0.0161,0.0215,0.015,0.0231,0.0282,0.0198,0.0196,0.0193,0.0136,0.0127,0.024,0.024,0.024,0,0.0141,0.0176,0.0171,0.0207,0.0226,0.0193,0.023,0.0234,0.0231,0.0237,0.0224,0.0214,0.0201,0.0211,0.0243,0.0233,0.0181,0.0242,0.0206,0.0202,0.0198,0.0139,0.0128,0.0244,0.0244,0.0243,0.0243,0,0.0197,0.0229,0.025,0.0286,0.0308,0.0333,0.0341,0.0349,0.0343,0.0341,0.0349,0.0314,0.0301,0.031,0.03,0.0285,0.0257,0.0219,0.0172,0.0201,0.0138,0.0126,0.025,0.0248,0.0247,0.0246,0,0,0.0201,0.0272,0.0281,0.0315,0.0353,0.0374,0.0416,0.0437,0.0445,0.0444,0.0447,0.0456,0.0412,0.0406,0.0372,0.032,0.0259,0.0275,0.0269,0.0207,0.0088,0.0084,0.0069,0.0206,0.0204,0.0202,0.006,0,0.0241,0.0319,0.0352,0.0427,0.0465,0.0474,0.0515,0.0534,0.0529,0.0522,0.0482,0.0476,0.0457,0.0439,0.0384,0.0285,0.0228,0.0302,0.0079,0.0073,0.0055,0.0055,0.0196,0.0051,0.0048,0.0046,0.0044,0,0.0284,0.0332,0.0416,0.0493,0.0512,0.0556,0.0594,0.0628,0.0616,0.061,0.058,0.0536,0.0483,0.044,0.0282,0.0328,0.0224,0.0142,0.0132,0.0091,0.0046,0.0012,0.0021,0.0023,0.0025,0.0026,0.0028,0,0.0286,0.0377,0.0444,0.0476,0.0555,0.0597,0.0632,0.0653,0.0685,0.065,0.0645,0.0563,0.0511,0.0373,0.0235,0.0245,0.0035,0.0011,-0.0092,-0.0094,-0.0083,-0.0079,-0.0124,-0.0124,-0.0123,-0.0123,-0.0123,0,0.0318,0.0372,0.0449,0.0493,0.0568,0.0621,0.0687,0.0699,0.0718,0.075,0.0685,0.0656,0.0488,0.0362,0.0227,0.0039,0.0017,-0.0086,-0.0137,-0.0043,-0.0033,-0.0092,-0.0086,-0.0128,-0.0127,-0.0126,-0.0125,0,0.0324,0.0371,0.0454,0.0547,0.0578,0.0637,0.0742,0.0781,0.0788,0.0812,0.0807,0.0713,0.0553,0.0383,0.0142,0.003,-0.0155,-0.0222,-0.009,-0.0131,-0.0224,-0.0213,-0.0355,-0.0356,-0.0357,-0.0358,-0.0359,0,0.0339,0.0382,0.049,0.055,0.0604,0.0692,0.0755,0.0807,0.0853,0.0847,0.0854,0.0721,0.0637,0.0307,0.0112,-0.0164,-0.02,-0.0303,-0.0268,-0.0216,-0.0252,-0.0238,-0.0225,-0.0361,-0.0362,-0.0362,-0.0362,0,0.0387,0.0422,0.0493,0.0596,0.0683,0.0772,0.0865,0.0894,0.0945,0.0944,0.0889,0.0735,0.0547,0.0307,0.0091,-0.0107,-0.0239,-0.0316,-0.0315,-0.0284,-0.0226,-0.0257,-0.0242,-0.0367,-0.0366,-0.0366,-0.0365,0,0.0439,0.0484,0.0578,0.0665,0.0766,0.085,0.0878,0.0934,0.0972,0.0965,0.093,0.0746,0.0633,0.0333,0.0132,-0.0058,-0.0106,-0.0173,-0.018,-0.0178,-0.0079,0.0023,-0.0089,0,0,0,0,0,0.05,0.056,0.0649,0.0759,0.0843,0.089,0.0968,0.0985,0.1005,0.098,0.0968,0.0803,0.0507,0.0368,0.0178,0.0097,-0.0149,-0.0136,-0.0231,-0.039,-0.0385,-0.03,0,0,0,0,0,0,0.0554,0.0647,0.067,0.0814,0.0878,0.0979,0.1013,0.1011,0.0996,0.098,0.0827,0.0753,0.0465,0.0631,0.0178,0.0117,0.0027,-0.0271,-0.0276,-0.0393,-0.0389,-0.0385,-0.0295,0,0,0,0,0]}]]